Zurück zum Katalog

STARLINK-37320

AktivKommunikationVLEO
NORAD 68711·PAYLOAD·🇺🇸 United States

Gestartet Apr 14, 2026 von Cape Canaveral Space Force Station

Loading…

Nächste Überflüge (nächste 24 Stunden)

TLE

AktuellSource: CelesTrak SupGP

Epoche: Sep 14, 2026, 22:44 UTC

1 68711C 26081N   26257.94770833  .00022621  00000+0  66819-3 0  2575
2 68711  53.1582 231.7425 0001368  94.5057 319.1651 15.34386671    12

Verfolge STARLINK-37320 in Echtzeit mit AllMySat

Download on the App Store